User: anonymous   Login
Location: Haliburton Scout Reserve
(45.0900°N, 78.3200°W)
Time: 05:00:28
(UTC-04:00)
Language:

AO-92 - Orbit

View from above orbital plane
View from above orbital plane
View from above satellite
View from above satellite

Ground track
Ground track

The orbit data is extracted from the following two-line orbital elements,

1 43137U 18004AC  23091.17645560  .00048118  00000-0  11795-2 0  9997
2 43137  97.3339 169.8277 0006312  67.9470 292.2446 15.40559725290439
Epoch (UTC): 01 April 2023 04:14:05
Eccentricity: 0.0006312
inclination: 97.3339°
perigee height: 440 km
apogee height: 449 km
right ascension of ascending node: 169.8277°
argument of perigee: 67.9470°
revolutions per day: 15.40559725
mean anomaly at epoch: 292.2446°
orbit number at epoch: 29043

The dashed part of the orbit path shows where the satellite is in the earth's shadow,  

DLR